Lid_Strength_Index
2 2 2 2 2 2 2 2 2 1 1 1 1 1 1 1 1 3 7 6 3 -2 -2 4 4 4 5 8 7 8 12 13 13 11 12 10 10 9 8 9 8 7 8 7 6
3 3 3 2 2 2 2 2 2 1 1 1 1 1 1 1 4 5 3 -1 -2 -3 5 6 6 6 9 8 8 10 13 12 10 11 12 11 10 9 9 9 9 8 7 6 6
2 3 3 3 2 2 2 2 2 2 1 1 1 1 1 2 6 8 -0 -0 -2 -2 5 5 6 7 9 8 9 11 12 10 10 9 9 10 10 9 10 11 9 10 8 7 7
2 2 2 3 3 3 2 2 2 2 2 1 1 1 1 4 11 8 -1 -2 -3 0 5 6 8 11 11 11 10 11 10 10 10 9 11 10 9 10 10 10 8 7 7 8 8
2 2 2 2 3 3 3 2 2 2 2 2 1 1 5 8 7 6 -3 -1 2 4 6 8 10 11 13 11 10 11 10 9 9 10 10 9 10 10 10 8 7 7 7 8 8
2 2 2 2 2 2 3 3 3 3 2 2 1 2 6 9 5 4 3 4 4 7 7 8 10 9 11 11 12 10 10 10 10 11 10 10 10 10 9 7 7 7 8 8 7
3 3 3 2 2 2 3 3 3 3 2 1 1 2 7 7 5 5 5 7 6 5 7 7 7 9 9 10 9 10 13 11 10 10 11 9 11 10 8 7 7 7 7 7 7
3 3 3 3 2 2 2 3 3 2 1 0 0 4 8 4 6 6 5 5 5 5 5 6 7 9 11 9 9 11 13 16 11 10 10 10 14 9 8 8 8 7 7 7 6
3 3 3 3 3 3 3 3 3 1 0 0 4 6 8 4 7 6 6 6 5 5 5 4 8 9 9 12 14 13 16 14 11 10 10 11 13 9 8 8 8 8 8 7 6
3 4 4 3 3 3 4 3 2 3 2 2 3 8 7 7 5 5 6 5 6 6 7 8 9 11 12 14 17 15 15 13 13 11 11 12 12 10 8 8 8 8 8 7 7
4 4 4 4 4 4 5 7 8 7 6 8 7 7 6 4 4 6 5 6 7 8 11 9 12 13 12 11 11 12 13 13 12 10 11 11 11 10 9 9 9 8 8 7 7
3 3 3 4 4 4 6 8 6 7 10 6 6 5 4 4 7 6 5 8 9 11 9 11 13 10 9 9 10 11 13 14 11 9 11 11 12 10 9 9 8 8 8 7 7
3 3 3 3 3 3 6 5 4 6 10 7 6 6 5 6 7 7 6 7 9 11 11 12 11 8 9 10 11 13 13 13 12 10 11 11 13 10 9 8 7 8 7 7 7
4 3 3 3 3 3 4 3 3 3 12 9 7 7 6 6 8 5 5 7 9 11 11 12 9 9 11 11 11 14 10 10 11 13 16 11 17 12 10 10 9 8 8 7 7
4 4 4 4 5 4 3 2 3 4 18 6 7 4 6 8 7 7 5 7 10 10 11 12 11 11 11 10 9 12 10 11 11 14 15 13 16 13 10 11 10 9 8 7 7
4 4 4 4 3 2 1 2 4 11 17 8 7 8 8 7 7 6 6 6 7 10 10 11 8 9 10 9 9 8 11 12 13 14 19 13 14 13 12 10 10 8 7 7 7
4 4 5 4 4 1 0 4 11 15 7 8 8 7 8 8 8 7 8 10 12 14 14 11 11 9 8 11 10 11 14 18 20 18 19 12 13 12 9 9 8 8 8 7 7
5 5 4 2 0 1 3 8 15 9 9 7 7 7 9 8 8 7 8 11 10 10 12 13 14 9 8 10 12 13 13 18 22 21 18 12 16 13 8 8 7 7 7 7 8
5 5 3 2 1 2 6 13 12 9 7 8 8 10 10 8 9 9 10 9 9 10 13 13 12 7 8 8 9 11 13 11 16 15 18 15 13 10 8 8 8 8 7 8 8
7 6 5 1 -0 3 9 11 9 6 6 7 10 8 12 10 10 10 10 8 8 7 8 10 14 8 7 8 9 11 9 15 16 21 21 15 14 15 11 10 8 9 9 8 7
7 8 3 4 4 7 11 10 8 6 6 7 9 9 9 9 9 10 9 7 6 7 8 10 12 11 9 11 11 12 13 13 13 15 20 21 16 10 10 9 9 9 8 8 8
8 11 6 5 10 10 12 9 8 8 6 7 7 8 9 9 9 10 10 8 6 6 10 9 12 15 12 8 7 9 11 12 17 17 16 17 16 8 9 9 9 8 7 8 7
10 10 5 6 13 11 9 8 7 8 7 8 8 7 7 9 13 9 9 6 6 7 9 9 13 17 15 12 9 10 10 10 12 13 16 19 16 8 8 8 7 8 8 7 7
10 13 10 8 9 11 11 11 11 8 9 8 9 8 8 10 9 11 10 7 6 6 6 6 12 14 17 14 11 13 10 10 12 16 15 15 13 10 9 9 8 8 8 7 7
9 12 9 12 11 10 10 10 12 12 9 9 11 10 10 13 12 12 10 9 7 5 7 8 14 12 11 10 10 11 11 10 12 12 15 12 12 10 9 8 9 8 7 7 7
10 11 9 11 10 11 10 12 12 11 10 11 11 10 9 11 11 13 11 11 11 9 9 9 13 11 12 10 10 11 10 10 10 10 11 11 11 9 8 8 8 8 7 8 8
7 7 10 11 12 12 12 11 11 10 10 8 9 10 10 8 7 7 7 8 9 10 11 11 12 14 15 11 11 15 11 10 10 9 10 13 11 9 9 8 9 9 8 8 8